User: anonymous   Login
Location: Unspecified
(0.0000°N, 0.0000°E)
Time: 20:11:13
(UTC+00:00)
Language:

STARLINK-30171 - Orbit

View from above orbital plane
View from above orbital plane
View from above satellite
View from above satellite

Ground track
Ground track

The orbit is defined by the following mean orbital elements,

1 57469U          26145.03341723 +.00000000 +00000-0 -54412-4 0 00006
2 57469  43.0000 268.2992 0001039 295.5775  64.4969 15.27562580    00
Epoch (UTC): 25 May 2026 00:48:07
Eccentricity: 0.0001039
inclination: 43.0000°
perigee height: 482 km
apogee height: 484 km
right ascension of ascending node: 268.2992°
argument of perigee: 295.5775°
revolutions per day: 15.27562580
mean anomaly at epoch: 64.4969°

The dashed part of the orbit path shows where the satellite is in the earth's shadow,  

DLR